User: anonymous   Login
Location: Heidgraben
(53.7081°N, 9.6576°E)
Time: 21:56:45
(UTC+00:00)
Language:

Cosmos 2219 Rocket - Orbit

View from above orbital plane
View from above orbital plane
View from above satellite
View from above satellite

Ground track
Ground track

The orbit data is extracted from the following two-line orbital elements,

1 22220U 92076B   20270.15601383 -.00000146  00000-0 -48999-4 0  9996
2 22220  71.0000  59.5956 0015020 252.1965 280.9396 14.16458505440267
Epoch (UTC): 26 September 2020 03:44:39
Eccentricity: 0.0015020
inclination: 71.0000°
perigee height: 826 km
apogee height: 848 km
right ascension of ascending node: 59.5956°
argument of perigee: 252.1965°
revolutions per day: 14.16458505
mean anomaly at epoch: 280.9396°
orbit number at epoch: 44026

The dashed part of the orbit path shows where the satellite is in the earth's shadow,  

DLR